Terminal Aerodrome Forecast
Issued by NWS

Current Version | Previous Version | Text Only | Print | Product List | Glossary On
Versions: 1 2 3 4 5 6 7 8 9 10 11 12 13
000
FTUS43 KFGF 182300
TAFDVL
TAF
KDVL 182320Z 1900/1924 18020KT P6SM BKN250
     FM190900 18013KT P6SM BKN250
     FM191500 25012KT P6SM BKN250
      AMD LTD TO CLD VIS AND WIND=

USA.gov is the U.S. government's official web portal to all federal, state and local government web resources and services.